Location: Blanton
(30.8302°N, 83.1188°W)
Time: 02:40:09
(UTC+00:00)

N. Korean satellite - Visible Passes

Search period start: 07 December 2021 00:00
Search period end: 17 December 2021 00:00
Orbit: 446 x 495 km, 97.3° (Epoch: 06 December)

Date Brightness Start Highest point End Pass type
(mag) Time Alt. Az. Time Alt. Az. Time Alt. Az.
07 Dec 9.8 09:47:31 10° ENE 09:48:49 12° E 09:50:08 10° ESE visible
07 Dec 7.5 11:19:14 10° NNW 11:21:58 23° WNW 11:24:42 10° SW visible
08 Dec 6.3 10:50:11 10° N 10:53:33 66° WNW 10:56:54 10° SSW visible
08 Dec 9.6 22:52:40 10° SW 22:55:13 19° W 22:57:44 10° NW visible
09 Dec 7.7 10:21:49 10° NNE 10:25:01 40° E 10:28:13 10° S visible
10 Dec 9.5 09:54:18 10° ENE 09:56:23 15° E 09:58:27 10° SE visible
10 Dec 7.8 11:27:02 10° NNW 11:29:26 18° WNW 11:31:51 10° WSW visible
11 Dec 6.5 10:58:06 13° N 11:01:01 48° WNW 11:04:18 10° SSW visible
11 Dec 9.8 23:00:45 10° SW 23:02:44 14° W 23:04:43 10° WNW visible
12 Dec 7.1 10:29:44 14° NNE 10:32:29 54° E 10:35:50 10° S visible
13 Dec 9.1 10:01:19 10° NE 10:03:52 20° E 10:06:25 10° SE visible
13 Dec 8.1 11:35:21 12° NW 11:36:50 15° WNW 11:38:49 10° WSW visible
14 Dec 6.9 11:06:49 23° NNW 11:08:25 37° WNW 11:11:36 10° SW visible
14 Dec 10.1 23:09:08 10° WSW 23:10:12 11° W 23:11:16 10° WNW visible
15 Dec 6.5 10:38:13 28° NNE 10:39:54 73° E 10:43:19 10° S visible
16 Dec 8.7 10:09:36 17° NE 10:11:17 25° E 10:14:11 10° SSE visible
16 Dec 8.3 11:43:41 11° WNW 11:44:10 12° WNW 11:45:27 10° W visible
